Flag for Australia Weather past 2 weeks in Dubbo, New South Wales, Australia

Now
72 °F

Clear.


Feels Like: 77 °F
Forecast: 58 / 78 °F
Wind: 8 mph from Southwest

Location: Dubbo Airport

Current Time: Mar 5, 2015 at 2:23:33 AM

Latest Report: Mar 5, 2015 at 2:00 AM


Visibility: N/A

Pressure: 29.83 "Hg

Humidity: 33%

Dew point: 41 °F

Location of DubboLocation

Historic Weather in Dubbo — Graph

°F

Dubbo temperature yesterday

Maximum temperature yesterday: 97 °F (at 3:00 PM)
Minimum temperature yesterday: 70 °F (at 7:00 AM)
Average temperature yesterday: 83 °F

Past Weeks' High & Low Weather Summary

 TemperatureHumidityPressure
High100 °F (Mar 1, 3:30 PM)94% (Feb 25, 9:30 PM)30.12 "Hg (Feb 25, 9:30 PM)
Low63 °F (Feb 27, 5:30 AM)18% (Mar 4, 3:00 PM)29.65 "Hg (Feb 26, 6:00 PM)
Average80 °F55%29.89 "Hg
* Reported Feb 18 1:00 AM — Mar 5 1:00 AM, Dubbo, Weather by CustomWeather, © 2015

Note: Actual official high and low records may vary slightly from our data, if they occured in-between our weather recording intervals... More about our weather records

Advertising

Dubbo weather history for previous 24 hours

 ConditionsComfort  
Time TempWeatherWind HumidityBarometerVisibility
1:00 AM
Thu, Mar 5
77 °FClear.10 mph28%29.83 "HgN/A
12:30 AM77 °FClear.12 mph30%29.83 "HgN/A
12:00 AM79 °FClear.13 mph28%29.83 "HgN/A
11:00 PM
Wed, Mar 4
79 °FClear.10 mph30%29.83 "HgN/A
10:30 PM79 °FClear.8 mph30%29.83 "HgN/A
10:00 PM77 °FClear.8 mph34%29.83 "HgN/A
9:00 PM79 °FClear.7 mph32%29.83 "HgN/A
8:30 PM79 °FClear.7 mph30%29.83 "HgN/A
8:00 PM82 °FClear.7 mph26%29.80 "HgN/A
7:30 PM88 °FSunny.12 mph24%29.80 "HgN/A
7:00 PM90 °FSunny.10 mph22%29.80 "HgN/A
6:30 PM91 °FSunny.14 mph23%29.80 "HgN/A
6:00 PM93 °FSunny.17 mph20%29.80 "HgN/A
5:30 PM95 °FSunny.14 mph20%29.80 "HgN/A
5:00 PM95 °FSunny.15 mph19%29.80 "HgN/A
4:30 PM95 °FSunny.15 mph19%29.80 "HgN/A
4:00 PM95 °FSunny.15 mph18%29.80 "HgN/A
3:30 PM95 °FSunny.15 mph18%29.83 "HgN/A
3:00 PM97 °FSunny.15 mph18%29.83 "HgN/A
2:30 PM95 °FSunny.17 mph19%29.83 "HgN/A
2:00 PM93 °FSunny.7 mph20%29.86 "HgN/A
1:30 PM93 °FSunny.6 mph20%29.86 "HgN/A
1:00 PM93 °FSunny.8 mph20%29.86 "HgN/A
12:30 PM93 °FSunny.13 mph21%29.89 "HgN/A
12:00 PM91 °FSunny.9 mph30%29.89 "HgN/A
11:30 AM88 °FSunny.7 mph35%29.92 "HgN/A
11:00 AM86 °FSunny.7 mph46%29.92 "HgN/A
10:30 AM84 °FSunny.5 mph48%29.92 "HgN/A
10:00 AM82 °FSunny.6 mph51%29.92 "HgN/A
9:30 AM81 °FSunny.8 mph54%29.92 "HgN/A
9:00 AM79 °FSunny.9 mph54%29.92 "HgN/A
8:30 AM77 °FSunny.8 mph54%29.92 "HgN/A
8:00 AM75 °FSunny.7 mph54%29.89 "HgN/A
7:30 AM70 °FSunny.6 mph64%29.89 "HgN/A
7:00 AM70 °FSunny.7 mph64%29.86 "Hg6 mi
6:00 AM72 °FClear.9 mph61%29.86 "HgN/A
5:30 AM73 °FClear.8 mph57%29.83 "HgN/A
5:00 AM72 °FClear.8 mph57%29.83 "HgN/A
4:30 AM73 °FClear.8 mph57%29.83 "HgN/A
4:00 AM75 °FClear.9 mph54%29.86 "HgN/A
3:30 AM75 °FClear.8 mph50%29.86 "HgN/A
3:00 AM77 °FPassing clouds.8 mph47%29.86 "HgN/A
2:30 AM79 °FClear.10 mph45%29.86 "HgN/A
2:00 AM79 °FClear.9 mph48%29.86 "Hg6 mi
Weather by CustomWeather, © 2015

See weather overviewHow to use our weather pages